Regional Weather Roundup
Issued by NWS Kansas City/Pleasant Hill, MO

Home | Current Version | Previous Version | Text Only | Print | Product List | Glossary On
Versions: 1 2 3 4 5 6 7 8 9 10 11 12 13 14 15 16 17 18 19 20 21 22 23 24 25 26 27 28 29 30 31 32 33 34 35 36 37 38 39 40 41 42 43 44 45 46 47 48 49 50
000
ASUS43 KEAX 221310
RWREAX

WEATHER ROUNDUP FOR EASTERN KANSAS AND NORTHWEST MISSOURI
NATIONAL WEATHER SERVICE KANSAS CITY/PLEASANT HILL MO
800 AM CDT MON SEP 22 2014

KSZ040-057-103>105-MOZ028-029-037-043-221400-
...KANSAS CITY METROPOLITAN AREA...

CITY           SKY/WX    TMP DP  RH WIND       PRES   REMARKS
K.C. INTL      CLEAR     50  48  93 NW7       30.32R
K.C. DOWNTOWN  CLEAR     53  51  93 CALM      30.32R
LEES SUMMIT    CLEAR     52  49  89 N3        30.32R
OLATHE - IXD   CLEAR     51  50  96 CALM      30.32R
OLATHE - OJC   CLEAR     53  50  89 NW3       30.31R
LAWRENCE       CLEAR     47  45  93 CALM      30.32S

$$

MOZ001>008-011>017-020>025-030>033-038>040-044>046-053-054-221400-
...NORTHERN AND CENTRAL MISSOURI...

CITY           SKY/WX    TMP DP  RH WIND       PRES   REMARKS
ST. JOSEPH     PTCLDY    48  48 100 CALM      30.33R
MOSBY          SUNNY     48  48 100 CALM      30.31S
WHITEMAN AFB   SUNNY     51  49  93 CALM      30.31R
CLINTON        SUNNY     52  50  93 NE3       30.32R
SEDALIA        SUNNY     53  49  86 N3        30.32R
WARSAW         NOT AVBL
MARSHALL       SUNNY     55  54  94 CALM      30.32S
CHILLICOTHE      N/A     52  49  89 CALM      30.33R
MOBERLY        SUNNY     50  46  87 CALM      30.32R
KIRKSVILLE     SUNNY     51  48  89 CALM      30.32R

$$

MOZ041-047>049-056>058-063>065-088>090-097-221400-
...EASTERN AND SOUTHERN MISSOURI...

CITY           SKY/WX    TMP DP  RH WIND       PRES   REMARKS
ST. LOUIS INTL SUNNY     57  50  77 CALM      30.28R
SPIRIT OF STL  SUNNY     53  51  93 CALM      30.27R
COLUMBIA       SUNNY     52  50  93 NW6       30.30R
JEFFERSON CITY FOG       50  50 100 W5        30.30R VSB 1/4
MEXICO         SUNNY    N/A N/A N/A NW3       30.30R
HANNIBAL       SUNNY     52  50  93 NW5       30.30R
ROLLA          SUNNY     53  50  89 NW3       30.28R
LEBANON        SUNNY     54  52  94 CALM      30.30S
OSAGE BEACH    SUNNY     50  46  87 CALM      30.30R
SPRINGFIELD    SUNNY     52  48  86 CALM      30.29R
BRANSON        SUNNY     52  50  93 CALM      30.30R
NEVADA         CLEAR     52  52 100 CALM      30.32R
JOPLIN         CLEAR     52  50  93 NE6       30.30R
WEST PLAINS    SUNNY     54  49  83 CALM      30.29R

$$

IAZ060-094-KSZ022-034>040-054-083-096-NEZ052-066-093-221400-
...KANSAS...SOUTHEAST NEBRASKA AND IOWA...

CITY           SKY/WX    TMP DP  RH WIND       PRES   REMARKS
TOPEKA         CLEAR     49  49 100 CALM      30.33R
MANHATTAN      CLEAR     46  44  93 CALM      30.32S
EMPORIA        CLEAR     50  49  96 CALM      30.32R
CHANUTE        CLEAR     51  50  96 N3        30.32R
WICHITA        PTCLDY    57  48  72 NE5       30.32R
OMAHA          PTCLDY    49  48  97 CALM      30.32S
LINCOLN        CLEAR     48  44  86 CALM      30.32S
FALLS CITY     CLEAR     47  46  97 CALM      30.32R
LAMONI         CLEAR     49  47  93 NW3       30.32R
DES MOINES     CLEAR     50  47  89 NW5       30.31S

$$



USA.gov is the U.S. government's official web portal to all federal, state and local government web resources and services.